Preston, MN

12:19 AM CST on November 22, 2017 (GMT -0600)
Preston

Weather History for KFKA - October, 2012

Change the Weather History Date:

Tuesday, October 9, 2012

  Actual Average (KRST) Record (KRST)
Temperature  
Mean Temperature 47 °F -  
Max Temperature 53 °F 57 °F 90 °F (2010)
Min Temperature 41 °F 38 °F 21 °F (1915)
Degree Days  
Heating Degree Days 18    
Moisture  
Dew Point 39 °F    
Average Humidity 71    
Maximum Humidity 86    
Minimum Humidity 49    
Precipitation  
Precipitation 0.18 in - - ()
Sea Level Pressure  
Sea Level Pressure 29.84 in    
Wind  
Wind Speed 9 mph (West)    
Max Wind Speed 22 mph    
Max Gust Speed 29 mph    
Visibility 9 miles    
Events Rain    
Averages and records for this station are not official NWS values.
T = Trace of Precipitation, MM = Missing Value Source: NWS Daily Summary

Daily Weather History Graph

Daily Weather History Graph

Search for Another Location

Airport or City:

Trip Planner

Search our weather history database for the weather conditions in past years. The results will help you decide how hot, cold, wet, or windy it might be!

Date:

Astronomy

Oct. 09, 2012 Rise Set
Actual Time 7:16 AM CDT 6:34 PM CDT
Civil Twilight 6:47 AM CDT 7:03 PM CDT
Nautical Twilight 6:14 AM CDT 7:36 PM CDT
Astronomical Twilight 5:40 AM CDT 8:09 PM CDT
Moon 12:42 AM CDT (10/9) 3:12 PM CDT (10/9)
Length of Visible Light 12h 15m
Length of Day
11h 18m
Last Quarter, 36% of the Moon is Illuminated
Oct 9
Last Quarter
Oct 15
New
Oct 21
First Quarter
Oct 29
Full
Nov 6
Last Quarter

Hourly Weather History & Observations

Time (CDT) Temp. Windchill Dew Point Humidity Pressure Visibility Wind Dir Wind Speed Gust Speed Precip Events Conditions
12:10 AM 53.4 °F - 42.4 °F 66% 29.81 in 7.0 mi West 8.1 mph - N/A Rain Rain
12:30 AM 52.7 °F - 45.0 °F 75% 29.81 in 10.0 mi WSW 5.8 mph - 0.01 in Rain Light Rain
12:50 AM 52.2 °F - 45.5 °F 78% 29.81 in 10.0 mi WSW 4.6 mph - 0.03 in Rain Light Rain
1:10 AM 52.0 °F - 45.7 °F 79% 29.80 in 7.0 mi WSW 4.6 mph - 0.01 in Rain Light Rain
1:30 AM 51.8 °F - 46.4 °F 82% 29.81 in 7.0 mi SW 4.6 mph - 0.01 in Rain Light Rain
1:50 AM 51.8 °F - 46.6 °F 82% 29.80 in 10.0 mi SSW 4.6 mph - 0.02 in   Light Drizzle
2:10 AM 51.4 °F - 46.6 °F 83% 29.79 in 7.0 mi South 6.9 mph - N/A   Overcast
2:30 AM 51.4 °F - 47.1 °F 85% 29.79 in 10.0 mi SSW 5.8 mph - N/A   Overcast
3:10 AM 51.1 °F - 46.9 °F 86% 29.77 in 10.0 mi SSW 5.8 mph - N/A   Scattered Clouds
3:30 AM 51.1 °F - 46.8 °F 85% 29.77 in 10.0 mi SSW 5.8 mph - N/A   Mostly Cloudy
3:51 AM 51.3 °F - 46.9 °F 85% 29.77 in 10.0 mi SSW 6.9 mph - N/A   Mostly Cloudy
4:10 AM 51.3 °F - 46.8 °F 85% 29.77 in 10.0 mi SSW 5.8 mph - N/A   Overcast
4:30 AM 51.3 °F - 46.6 °F 84% 29.77 in 10.0 mi SSW 5.8 mph - N/A   Mostly Cloudy
4:51 AM 51.8 °F - 46.8 °F 83% 29.77 in 10.0 mi SW 8.1 mph - N/A   Scattered Clouds
5:10 AM 51.8 °F - 46.8 °F 83% 29.77 in 10.0 mi SSW 8.1 mph - N/A   Scattered Clouds
5:30 AM 51.8 °F - 46.8 °F 83% 29.77 in 10.0 mi SW 6.9 mph - N/A   Mostly Cloudy
6:10 AM 51.4 °F - 46.9 °F 85% 29.77 in 10.0 mi SW 6.9 mph - N/A Rain Light Rain
6:30 AM 51.3 °F - 46.9 °F 85% 29.77 in 10.0 mi SW 5.8 mph - 0.01 in Rain Light Rain
6:50 AM 51.1 °F - 46.8 °F 85% 29.78 in 10.0 mi SW 6.9 mph - 0.01 in   Overcast
7:10 AM 50.9 °F - 46.6 °F 85% 29.78 in 10.0 mi SW 6.9 mph - N/A   Light Drizzle
7:30 AM 50.5 °F - 46.2 °F 85% 29.78 in 10.0 mi SSW 9.2 mph - 0.01 in Rain Light Rain
7:50 AM 50.0 °F - 45.3 °F 84% 29.78 in 10.0 mi SSW 8.1 mph - 0.01 in   Overcast
8:10 AM 49.3 °F - 44.6 °F 84% 29.78 in 10.0 mi SSW 6.9 mph - N/A   Overcast
8:30 AM 49.1 °F - 44.1 °F 83% 29.77 in 10.0 mi SSW 6.9 mph - N/A   Overcast
8:50 AM 49.1 °F - 43.9 °F 82% 29.77 in 10.0 mi SW 6.9 mph - N/A   Overcast
9:10 AM 49.6 °F - 44.6 °F 83% 29.77 in 10.0 mi SSW 8.1 mph - N/A   Overcast
9:30 AM 50.0 °F - 44.8 °F 82% 29.77 in 10.0 mi SSW 9.2 mph - N/A   Mostly Cloudy
9:50 AM 50.9 °F - 45.5 °F 82% 29.79 in 10.0 mi SW 9.2 mph - N/A   Mostly Cloudy
10:10 AM 51.3 °F - 46.0 °F 82% 29.79 in 7.0 mi SW 9.2 mph - N/A Rain Light Rain
10:30 AM 51.1 °F - 46.0 °F 83% 29.79 in 4.0 mi SW 9.2 mph - 0.02 in Rain Rain
10:50 AM 50.4 °F - 45.1 °F 82% 29.80 in 4.0 mi NW 18.4 mph - 0.07 in Rain Light Rain
11:10 AM 49.1 °F - 42.6 °F 78% 29.82 in 5.0 mi NW 21.9 mph 25.3 mph 0.01 in Rain Light Rain
11:30 AM 46.8 °F - 40.1 °F 78% 29.84 in 4.0 mi NW 15.0 mph 28.8 mph 0.03 in Rain Light Rain
11:50 AM 46.4 °F 41.9 °F 40.5 °F 80% 29.84 in 7.0 mi NW 9.2 mph - 0.04 in Rain Light Rain
12:10 PM 46.6 °F - 41.0 °F 81% 29.84 in 7.0 mi WNW 10.4 mph - 0.01 in Rain Light Rain
12:30 PM 46.4 °F 41.9 °F 40.5 °F 80% 29.84 in 7.0 mi WNW 9.2 mph - 0.02 in Rain Light Rain
12:50 PM 46.6 °F - 41.0 °F 81% 29.84 in 7.0 mi West 12.7 mph 18.4 mph 0.03 in Rain Light Rain
1:10 PM 46.9 °F - 41.5 °F 81% 29.83 in 7.0 mi West 9.2 mph - N/A Rain Light Rain
1:30 PM 47.3 °F - 41.0 °F 79% 29.82 in 10.0 mi West 8.1 mph - N/A   Mostly Cloudy
1:50 PM 46.8 °F - 38.8 °F 74% 29.83 in 10.0 mi WNW 12.7 mph 16.1 mph N/A   Scattered Clouds
2:10 PM 47.1 °F - 39.0 °F 73% 29.82 in 10.0 mi West 10.4 mph - N/A   Clear
2:30 PM 47.3 °F - 39.0 °F 73% 29.82 in 10.0 mi WSW 5.8 mph - N/A   Scattered Clouds
2:50 PM 47.3 °F - 39.0 °F 73% 29.82 in 10.0 mi West 9.2 mph - N/A   Mostly Cloudy
3:10 PM 47.7 °F - 39.6 °F 73% 29.83 in 10.0 mi West 10.4 mph - N/A   Overcast
3:30 PM 49.3 °F - 40.1 °F 71% 29.83 in 10.0 mi West 11.5 mph - N/A   Scattered Clouds
3:50 PM 50.0 °F - 34.5 °F 55% 29.84 in 10.0 mi West 12.7 mph - N/A   Scattered Clouds
4:10 PM 50.0 °F - 34.0 °F 54% 29.84 in 10.0 mi West 17.3 mph - N/A   Scattered Clouds
4:30 PM 49.6 °F - 33.1 °F 53% 29.84 in 10.0 mi WNW 15.0 mph 23.0 mph N/A   Overcast
4:50 PM 49.1 °F - 30.6 °F 49% 29.85 in 10.0 mi NW 18.4 mph 26.5 mph N/A   Overcast
5:11 PM 48.2 °F - 30.0 °F 49% 29.86 in 10.0 mi WNW 17.3 mph - N/A   Overcast
5:30 PM 47.8 °F - 29.8 °F 50% 29.86 in 10.0 mi WNW 11.5 mph - N/A   Mostly Cloudy
5:50 PM 46.9 °F - 29.7 °F 51% 29.87 in 10.0 mi WNW 11.5 mph 18.4 mph N/A   Mostly Cloudy
6:10 PM 47.1 °F - 29.3 °F 50% 29.87 in 10.0 mi WNW 11.5 mph - N/A   Overcast
6:30 PM 45.5 °F 40.8 °F 30.0 °F 55% 29.87 in 10.0 mi West 9.2 mph - N/A   Mostly Cloudy
6:50 PM 45.5 °F 40.8 °F 30.2 °F 55% 29.88 in 10.0 mi West 9.2 mph - N/A   Mostly Cloudy
7:10 PM 45.7 °F 40.6 °F 30.7 °F 56% 29.88 in 10.0 mi West 10.4 mph - N/A   Overcast
7:30 PM 45.9 °F 39.1 °F 31.1 °F 56% 29.89 in 10.0 mi WNW 16.1 mph 20.7 mph N/A   Overcast
7:50 PM 45.7 °F 38.3 °F 30.2 °F 55% 29.90 in 10.0 mi NW 18.4 mph 26.5 mph N/A   Mostly Cloudy
8:10 PM 43.9 °F 36.8 °F 30.0 °F 58% 29.91 in 10.0 mi NW 15.0 mph 20.7 mph N/A   Scattered Clouds
8:30 PM 43.0 °F 35.7 °F 30.0 °F 60% 29.92 in 10.0 mi WNW 15.0 mph - N/A   Scattered Clouds
8:50 PM 43.0 °F 35.4 °F 30.2 °F 61% 29.93 in 10.0 mi NW 16.1 mph 21.9 mph N/A   Scattered Clouds
9:10 PM 43.7 °F 36.0 °F 28.2 °F 54% 29.94 in 10.0 mi NW 17.3 mph 23.0 mph N/A   Overcast
9:30 PM 43.0 °F 35.1 °F 28.2 °F 56% 29.94 in 10.0 mi NW 17.3 mph 21.9 mph N/A   Overcast
9:50 PM 42.8 °F 35.4 °F 27.7 °F 55% 29.95 in 10.0 mi NW 15.0 mph 19.6 mph N/A   Mostly Cloudy
10:10 PM 42.8 °F 36.2 °F 27.7 °F 55% 29.95 in 10.0 mi WNW 12.7 mph - N/A   Overcast
10:30 PM 42.8 °F 36.6 °F 27.5 °F 55% 29.96 in 10.0 mi NW 11.5 mph - N/A   Overcast
10:50 PM 42.8 °F 36.6 °F 27.5 °F 55% 29.96 in 10.0 mi WNW 11.5 mph - N/A   Overcast
11:10 PM 42.3 °F 35.1 °F 27.1 °F 55% 29.95 in 10.0 mi WNW 13.8 mph 17.3 mph N/A   Mostly Cloudy
11:30 PM 41.2 °F 34.1 °F 26.6 °F 56% 29.96 in 10.0 mi WNW 12.7 mph 18.4 mph N/A   Scattered Clouds
11:50 PM 41.0 °F 32.8 °F 26.4 °F 56% 29.96 in 10.0 mi WNW 16.1 mph - N/A   Mostly Cloudy